DW8199 Weather Reports


Display with metric or nautical units.
time (UTC)temp
F
wind
direction
speed
MPH
gust
MPH
rain 1hr
in
rain 24hr
in
rain mn
in
humidity
%
barometer
mb
20260506190516 58 280 3.0 8.0 0.00 0.66 0.50 61 1011.8
20260506185516 58 282 2.0 7.0 0.00 0.66 0.50 59 1011.6
20260506184517 57 281 2.0 6.0 0.00 0.66 0.50 60 1011.7
20260506183516 57 283 2.0 6.0 0.00 0.66 0.50 61 1011.9
20260506182516 57 280 2.0 7.0 0.00 0.66 0.50 60 1011.7
20260506181516 57 282 3.0 6.0 0.00 0.66 0.50 60 1011.6
20260506180516 58 281 4.0 7.0 0.00 0.66 0.50 60 1011.6
20260506175516 58 279 3.0 8.0 0.00 0.66 0.50 61 1011.7
20260506174516 57 273 1.0 7.0 0.00 0.66 0.50 64 1011.8
20260506173516 57 288 4.0 8.0 0.00 0.66 0.50 64 1011.8
20260506172516 57 267 3.0 10.0 0.00 0.66 0.50 66 1012.0
20260506171536 57 278 3.0 7.0 0.00 0.66 0.50 69 1011.8
20260506170516 56 268 2.0 6.0 0.00 0.66 0.50 72 1011.5
20260506165516 56 285 2.0 6.0 0.00 0.66 0.50 74 1011.7
20260506164516 55 291 2.0 8.0 0.00 0.66 0.50 73 1011.7
20260506163516 55 270 2.0 4.0 0.00 0.66 0.50 75 1011.8
20260506162516 54 285 1.0 5.0 0.00 0.66 0.50 75 1011.5
20260506161516 54 271 1.0 6.0 0.00 0.66 0.50 77 1011.4
20260506160517 53 276 2.0 7.0 0.00 0.66 0.50 77 1011.2
20260506155516 52 275 2.0 7.0 0.00 0.66 0.50 82 1011.2
20260506154516 52 273 3.0 6.0 0.00 0.66 0.50 81 1011.1
20260506153516 52 276 2.0 7.0 0.00 0.66 0.50 83 1010.9
20260506152516 51 278 2.0 4.0 0.00 0.66 0.50 85 1010.8
20260506151516 51 277 2.0 6.0 0.00 0.66 0.50 85 1010.8
20260506150516 50 282 3.0 7.0 0.00 0.66 0.50 85 1010.7
20260506145516 50 276 2.0 5.0 0.00 0.66 0.50 87 1010.6
20260506144516 50 275 2.0 7.0 0.00 0.66 0.50 88 1010.4
20260506143537 50 271 2.0 8.0 0.00 0.66 0.50 88 1010.2
20260506142516 50 282 2.0 6.0 0.00 0.66 0.50 90 1010.0
20260506141536 50 280 1.0 6.0 0.00 0.66 0.50 90 1009.8
20260506140516 50 278 1.0 5.0 0.00 0.66 0.50 90 1009.7
20260506135556 49 282 1.0 3.0 0.00 0.66 0.50 91 1009.5
20260506134515 49 278 2.0 6.0 0.00 0.66 0.50 91 1009.4
20260506133517 49 133 0.0 4.0 0.01 0.66 0.50 91 1009.4
20260506132516 49 265 1.0 4.0 0.01 0.66 0.50 91 1009.4
20260506131516 48 275 1.0 4.0 0.01 0.66 0.50 91 1009.3
20260506130516 48 271 1.0 3.0 0.01 0.66 0.50 91 1009.0
20260506125556 48 279 0.0 3.0 0.01 0.66 0.50 91 1009.1
20260506124516 48 277 2.0 4.0 0.01 0.66 0.50 91 1009.1
20260506123516 47 274 1.0 2.0 0.01 0.65 0.49 91 1009.0
20260506122516 47 227 0.0 3.0 0.01 0.65 0.49 91 1009.0
20260506121515 47 276 1.0 2.0 0.02 0.65 0.49 91 1008.9
20260506120516 47 277 0.0 2.0 0.02 0.65 0.49 91 1008.2
20260506115516 47 279 1.0 4.0 0.02 0.65 0.49 91 1008.3
20260506114516 47 280 2.0 4.0 0.02 0.65 0.49 91 1008.6
20260506113516 47 261 0.0 1.0 0.01 0.64 0.48 91 1008.2
20260506112516 47 264 1.0 3.0 0.01 0.64 0.48 91 1008.7
20260506111515 47 279 1.0 3.0 0.00 0.63 0.47 91 1008.8
20260506110535 47 0.0 4.0 0.00 0.63 0.47 91 1008.3
20260506105516 47 277 1.0 3.0 0.00 0.63 0.47 91 1007.9
20260506104516 47 265 0.0 4.0 0.01 0.63 0.47 91 1007.2
20260506103536 47 225 0.0 3.0 0.02 0.63 0.47 91 1006.9
20260506102516 47 266 0.0 3.0 0.03 0.63 0.47 91 1007.2
20260506101516 47 244 0.0 3.0 0.05 0.63 0.47 91 1007.4
20260506100517 47 275 1.0 6.0 0.07 0.63 0.47 90 1007.3
20260506095516 47 277 2.0 8.0 0.09 0.63 0.47 90 1007.3
20260506094516 47 285 1.0 4.0 0.08 0.62 0.46 90 1007.8
20260506093516 47 277 2.0 5.0 0.07 0.61 0.45 90 1007.6
20260506092536 48 276 2.0 5.0 0.07 0.60 0.44 90 1007.4
20260506091516 49 283 3.0 11.0 0.07 0.58 0.42 90 1007.5
20260506090516 50 282 3.0 9.0 0.06 0.56 0.40 90 1007.5
20260506085516 50 276 2.0 6.0 0.07 0.54 0.38 91 1007.0
20260506084516 50 282 2.0 4.0 0.10 0.54 0.38 91 1006.8
20260506083536 51 261 1.0 2.0 0.13 0.54 0.38 91 1006.6
20260506082515 51 279 2.0 5.0 0.14 0.53 0.37 91 1006.5
20260506081516 51 280 2.0 5.0 0.13 0.51 0.35 90 1006.5
20260506080516 51 277 2.0 5.0 0.13 0.50 0.34 90 1006.4
20260506073515 52 273 0.0 2.0 0.09 0.41 0.25 90 1006.3
20260506072515 52 272 0.0 2.0 0.07 0.39 0.23 90 1006.1
20260506071515 52 261 1.0 3.0 0.08 0.38 0.22 90 1006.1
20260506070515 52 268 0.0 3.0 0.09 0.37 0.21 90 1006.3
20260506062515 53 232 1.0 5.0 0.05 0.32 0.16 90 1006.5
20260506061515 54 220 1.0 4.0 0.03 0.30 0.14 89 1006.7
20260506060516 56 284 1.0 4.0 0.02 0.28 0.12 89 1006.7
20260506050516 59 0.0 0.0 0.10 0.26 0.10 90 1007.6
20260506044516 59 205 0.0 1.0 0.06 0.21 0.05 90 1007.9
20260506043517 59 0.0 0.0 0.07 0.20 0.04 90 1007.8
20260506042515 59 91 0.0 1.0 0.06 0.18 0.02 90 1007.9
20260506041535 59 0.0 1.0 0.05 0.17 0.01 90 1008.0
20260506040536 59 0.0 0.0 0.05 0.16 0.00 90 1007.9
20260506035517 59 0.0 0.0 0.05 0.16 0.16 90 1007.9
20260506034516 59 91 0.0 2.0 0.05 0.15 0.15 90 1008.1
20260506033516 59 0.0 0.0 0.03 0.13 0.13 90 1008.1
20260506032516 59 0.0 0.0 0.03 0.12 0.12 90 1008.1
20260506031517 59 0.0 0.0 0.03 0.12 0.12 90 1008.2
20260506030517 59 125 0.0 2.0 0.02 0.11 0.11 90 1008.2
20260506025537 59 0.0 0.0 0.02 0.11 0.11 89 1008.2
20260506024517 60 114 0.0 1.0 0.02 0.10 0.10 89 1008.3
20260506023517 60 114 0.0 1.0 0.02 0.10 0.10 89 1008.5
20260506022516 60 0.0 0.0 0.01 0.09 0.09 89 1008.5
20260506021517 60 0.0 0.0 0.01 0.09 0.09 89 1008.3
20260506020516 60 0.0 0.0 0.01 0.09 0.09 89 1008.2
20260506015516 59 0.0 0.0 0.01 0.09 0.09 89 1008.1
20260506014537 60 114 0.0 1.0 0.01 0.08 0.08 89 1007.9
20260506013516 60 0.0 1.0 0.01 0.08 0.08 89 1007.7
20260506012517 60 0.0 0.0 0.03 0.08 0.08 89 1007.8
20260506011557 60 0.0 1.0 0.05 0.08 0.08 89 1007.7
20260506010517 60 0.0 0.0 0.05 0.08 0.08 88 1007.8
20260506005516 60 0.0 1.0 0.05 0.08 0.08 88 1007.9
20260506004516 60 245 0.0 3.0 0.06 0.07 0.07 88 1008.2
20260506003537 60 170 1.0 3.0 0.07 0.07 0.07 88 1008.1
20260506002517 60 283 0.0 1.0 0.05 0.05 0.05 87 1007.8
20260506001516 60 0.0 3.0 0.03 0.03 0.03 87 1007.8
20260506000537 61 270 1.0 6.0 0.03 0.03 0.03 86 1007.8
20260505235516 62 300 3.0 8.0 0.03 0.03 0.03 83 1007.9
20260505234517 65 297 5.0 11.0 0.01 0.01 0.01 75 1008.1
20260505233516 70 299 6.0 14.0 0.00 0.00 0.00 60 1007.8
20260505232516 70 239 2.0 6.0 0.00 0.00 0.00 59 1007.2
20260505231517 71 181 1.0 5.0 0.00 0.00 0.00 58 1007.2
20260505230516 71 191 3.0 8.0 0.00 0.00 0.00 58 1007.3
20260505225516 71 195 1.0 6.0 0.00 0.00 0.00 59 1007.2
20260505224537 71 170 1.0 7.0 0.00 0.00 0.00 58 1007.4
20260505223537 71 237 1.0 8.0 0.00 0.00 0.00 58 1007.4
20260505222516 71 213 1.0 6.0 0.00 0.00 0.00 58 1007.3
20260505221518 71 210 1.0 6.0 0.00 0.00 0.00 59 1007.4
20260505220516 71 226 2.0 6.0 0.00 0.00 0.00 58 1007.4
20260505215517 71 129 1.0 6.0 0.00 0.00 0.00 58 1007.4
20260505214516 71 247 3.0 7.0 0.00 0.00 0.00 58 1007.5
20260505213517 71 263 2.0 8.0 0.00 0.00 0.00 58 1007.5
20260505212516 71 246 3.0 11.0 0.00 0.00 0.00 58 1007.5
20260505211516 71 228 2.0 8.0 0.00 0.00 0.00 58 1007.6
20260505210516 71 187 4.0 13.0 0.00 0.00 0.00 58 1007.6
20260505205516 71 217 4.0 9.0 0.00 0.00 0.00 58 1007.8
20260505204517 71 234 3.0 12.0 0.00 0.00 0.00 58 1007.9
20260505203516 71 206 3.0 11.0 0.00 0.00 0.00 58 1008.0
20260505202516 71 243 2.0 7.0 0.00 0.00 0.00 59 1008.0
20260505201516 70 144 3.0 11.0 0.00 0.00 0.00 60 1008.0
20260505200516 70 268 3.0 8.0 0.00 0.00 0.00 60 1008.0
20260505195557 70 215 3.0 9.0 0.00 0.00 0.00 61 1008.1
20260505194516 69 257 2.0 8.0 0.00 0.00 0.00 63 1008.3
20260505193517 70 249 2.0 6.0 0.00 0.00 0.00 62 1008.2
20260505192516 71 218 2.0 9.0 0.00 0.00 0.00 60 1008.2
20260505191516 71 207 1.0 8.0 0.00 0.00 0.00 59 1008.1